Flag for Romania Weather past 2 weeks in Iasi, Romania

Now
64 °F

Clear.


Feels Like: 64 °F
Forecast: 65 / 96 °F
Wind: 2 mph from Northwest

Location: Iasi Airport

Current Time: Aug 2, 2014 at 6:19:02 AM

Latest Report: Aug 2, 2014 at 5:30 AM


Visibility: 10 mi

Pressure: 29.89 "Hg

Humidity: 94%

Dew point: 63 °F

Location of IasiLocation

Historic Weather in Iasi — Graph

°F

Iasi temperature yesterday

Maximum temperature yesterday: 91 °F (at 5:00 PM)
Minimum temperature yesterday: 59 °F (at 6:00 AM)
Average temperature yesterday: 78 °F

Past Weeks' High & Low Weather Summary

 TemperatureHumidityPressure
High91 °F (Aug 1, 5:00 PM)100% (Jul 18, 5:00 AM)30.09 "Hg (Jul 18, 5:00 AM)
Low59 °F (Aug 1, 6:00 AM)26% (Aug 1, 2:00 PM)29.77 "Hg (Jul 23, 2:30 PM)
Average74 °F71%29.92 "Hg
* Reported Jul 18 5:00 AM — Aug 2 5:00 AM, Iasi, Weather by CustomWeather, © 2014

Note: Actual official high and low records may vary slightly from our data, if they occured in-between our weather recording intervals... More about our weather records

Advertising

Iasi weather history for previous 24 hours

 ConditionsComfort  
Time TempWeatherWind HumidityBarometerVisibility
5:00 AM
Aug 2
64 °FClear.5 mph94%29.86 "Hg10 mi
4:00 AM64 °FClear.2 mph94%29.86 "Hg10 mi
3:00 AM66 °FPassing clouds.7 mph88%29.86 "HgN/A
2:00 AM68 °FClear.5 mph83%29.86 "Hg10 mi
1:00 AM70 °FClear.2 mph73%29.86 "Hg10 mi
12:00 AM72 °FClear.2 mph69%29.86 "Hg10 mi
11:00 PM
Aug 1
72 °FClear.2 mph69%29.83 "Hg10 mi
10:00 PM73 °FClear.2 mph61%29.83 "Hg10 mi
9:00 PM79 °FSunny.7 mph51%29.83 "Hg10 mi
8:30 PM82 °FPassing clouds.5 mph42%29.83 "HgN/A
8:00 PM84 °FSunny.5 mph40%29.83 "Hg10 mi
7:30 PM88 °FSunny.2 mph38%29.83 "Hg10 mi
7:00 PM88 °FPassing clouds.5 mph38%29.83 "HgN/A
6:30 PM90 °FPassing clouds.5 mph33%29.80 "HgN/A
6:00 PM90 °FPassing clouds.9 mph33%29.83 "HgN/A
5:30 PM90 °FPassing clouds.9 mph29%29.83 "HgN/A
5:00 PM91 °FPassing clouds.5 mph28%29.83 "HgN/A
4:30 PM90 °FPassing clouds.9 mph31%29.83 "HgN/A
4:00 PM90 °FPassing clouds.9 mph29%29.83 "HgN/A
3:30 PM90 °FPassing clouds.5 mph27%29.83 "HgN/A
3:00 PM90 °FPassing clouds.12 mph27%29.86 "HgN/A
2:30 PM90 °FPassing clouds.7 mph29%29.86 "HgN/A
2:00 PM90 °FPassing clouds.7 mph26%29.86 "HgN/A
1:30 PM90 °FSunny.12 mph27%29.86 "Hg10 mi
1:00 PM90 °FPassing clouds.9 mph29%29.86 "HgN/A
12:30 PM88 °FPassing clouds.7 mph33%29.86 "HgN/A
12:00 PM88 °FSunny.2 mph35%29.86 "Hg10 mi
11:30 AM84 °FSunny.5 mph43%29.89 "Hg10 mi
11:00 AM84 °FSunny.2 mph37%29.89 "Hg10 mi
10:30 AM82 °FSunny.2 mph51%29.89 "Hg10 mi
10:00 AM77 °FSunny.2 mph65%29.89 "Hg10 mi
9:30 AM75 °FSunny.2 mph69%29.89 "Hg10 mi
9:00 AM72 °FSunny.2 mph78%29.89 "Hg10 mi
8:30 AM70 °FPassing clouds.5 mph88%29.89 "HgN/A
8:00 AM68 °FSunny.2 mph88%29.89 "Hg10 mi
7:30 AM64 °FSunny.2 mph100%29.86 "Hg10 mi
7:00 AM61 °FSunny.2 mph100%29.86 "Hg10 mi
6:30 AM61 °FClear.2 mph100%29.86 "Hg10 mi
6:00 AM59 °FPassing clouds.5 mph100%29.86 "HgN/A
Weather by CustomWeather, © 2014

See weather overviewHow to use our weather pages